Regional Weather Roundup
Issued by NWS

Home | Current Version | Previous Version | Text Only | Print | Product List | Glossary On
Versions: 1 2 3 4 5 6 7 8 9 10 11 12 13 14 15 16 17 18 19 20 21 22 23 24 25 26 27 28 29 30 31 32 33 34 35 36 37 38 39 40 41 42 43 44 45 46 47 48 49 50
000
ASUS43 KOAX 062210
RWRNE

WEATHER ROUNDUP FOR NEBRASKA
NATIONAL WEATHER SERVICE OMAHA NE
400 PM CST FRI MAR 06 2015

NOTES: SATELLITE DATA IS BEING USED TO AUGMENT CLOUD COVER ABOVE
       12000 FEET.
       "FAIR" INDICATES FEW OR NO CLOUDS BELOW 12,000 FEET WITH NO
       SIGNIFICANT WEATHER AND/OR OBSTRUCTIONS TO VISIBILITY.

  * THESE STATIONS DO NOT REPORT WEATHER SUCH AS RAIN...SNOW OR FOG.

NEZ001>004-019>022-054>056-062300-
NEBRASKA PANHANDLE

CITY           SKY/WX    TMP DP  RH WIND       PRES   REMARKS
SCOTTSBLUFF    SUNNY     57  17  21 W20G30    30.19F
ALLIANCE       SUNNY     57  15  19 NW21      30.16S
CHADRON        SUNNY     54  22  28 W18G28    30.15F
KIMBALL        SUNNY     52  16  24 NW17G26   30.21R
SIDNEY         SUNNY     56  16  20 NW21      30.21R
$$

NEZ057>060-069>072-079>082-062300-
SOUTHWEST NEBRASKA

CITY           SKY/WX    TMP DP  RH WIND       PRES   REMARKS
NORTH PLATTE   SUNNY     63  14  15 W17G26    30.14F
IMPERIAL         N/A     61  14  16 W13       30.17F
LEXINGTON      SUNNY     63  17  17 NW15G23   30.14F
MCCOOK         SUNNY     66  15  14 W14G20    30.16F
OGALLALA       SUNNY     61  16  17 W13G24    30.16S
$$

NEZ005>010-023>029-035>040-094-062300-
NORTH CENTRAL NEBRASKA

CITY           SKY/WX    TMP DP  RH WIND       PRES   REMARKS
VALENTINE      PTSUNNY   59  19  21 W13       30.10S
AINSWORTH      PTSUNNY   57  17  20 NW14G24   30.10S
BROKEN BOW     SUNNY     63  19  18 NW17G25   30.11F
O`NEILL        MOSUNNY   59  16  18 NW14G23   30.10S
ORD            SUNNY     62  13  14 W17G24    30.10F
THEDFORD       SUNNY     62  19  18 NW18G26   30.12S
$$

NEZ041-046>049-061>064-073>077-083>087-062300-
SOUTH CENTRAL NEBRASKA

CITY           SKY/WX    TMP DP  RH WIND       PRES   REMARKS
GRAND ISLAND   SUNNY     62  17  17 W16G23    30.14S
AURORA         SUNNY     63  16  16 NW13G18   30.13S
HASTINGS       SUNNY     62  15  16 W14       30.14F
HEBRON         SUNNY     63   2   9 W10G20    30.16S
HOLDREGE       SUNNY     62  15  16 W15G21    30.15S
KEARNEY *      SUNNY     63  19  19 W14G20    30.14F
YORK           SUNNY     63  18  17 W17       30.13F
$$

NEZ011>018-030>034-042>045-062300-
NORTHEAST NEBRASKA

CITY           SKY/WX    TMP DP  RH WIND       PRES   REMARKS
NORFOLK        SUNNY     62  14  15 W12       30.08F
ALBION         SUNNY     61  13  14 W16       30.10F
BLAIR          SUNNY     61  16  17 W13G21    30.10F
COLUMBUS *     SUNNY     63  16  16 W12       30.12F
FREMONT        SUNNY     63  14  15 W12G20    30.11F
TEKAMAH        MOSUNNY   63  21  20 W17G23    30.09S
WAYNE          SUNNY     60  18  19 NW15      30.10S
$$

NEZ050>053-065>068-078-088>093-062300-
SOUTHEAST NEBRASKA

CITY           SKY/WX    TMP DP  RH WIND       PRES   REMARKS
LINCOLN        SUNNY     63  13  14 W17       30.14F
OMAHA EPPLEY   MOSUNNY   62  17  17 W20G29    30.11S
BEATRICE       SUNNY     62  15  16 W14G20    30.15S
FALLS CITY     SUNNY     62  18  18 W16       30.17F
NEBRASKA CITY  SUNNY     62   2   9 W15       30.15S
PLATTSMOUTH    SUNNY     61   8  12 W12G21    30.13S
$$

NEZ044-045-051>053-067-062300-
OMAHA AREA

CITY           SKY/WX    TMP DP  RH WIND       PRES   REMARKS
OMAHA EPPLEY   MOSUNNY   62  17  17 W20G29    30.11S
BLAIR          SUNNY     61  16  17 W13G21    30.10F
FREMONT        SUNNY     63  14  15 W12G20    30.11F
MILLARD        SUNNY     63  16  16 W13G21    30.11S
OFFUTT AFB     SUNNY     62  17  17 W9        30.11S
PLATTSMOUTH    SUNNY     61   8  12 W12G21    30.13S
WAHOO          FAIR      63   8  11 W8        30.12S
$$



USA.gov is the U.S. government's official web portal to all federal, state and local government web resources and services.